Flag for United Kingdom Past Weather in Newcastle upon Tyne, England, United Kingdom — Yesterday and Last 2 Weeks

Now
54 °F

Partly sunny.


Feels Like: 53 °F
Forecast: 38 / 58 °F
Wind: 3 mph from North

Location: Newcastle

Current Time: May 27, 2016 at 3:16:25 PM

Latest Report: May 27, 2016 at 2:20 PM


Visibility: N/A

Pressure: 30.09 "Hg

Humidity: 82%

Dew Point: 48 °F

Location of Newcastle upon TyneLocation

Past Weather in Newcastle upon Tyne — Graph

°F

Newcastle upon Tyne Temperature Yesterday

Maximum temperature yesterday: 52 °F (at 12:50 PM)
Minimum temperature yesterday: 46 °F (at 12:20 AM)
Average temperature yesterday: 49 °F

High & Low Weather Summary for the Past Weeks

 TemperatureHumidityPressure
High64 °F (May 17, 2:50 PM)100% (May 25, 10:50 PM)30.27 "Hg (May 25, 10:50 PM)
Low37 °F (May 13, 11:20 PM)41% (May 14, 1:50 PM)29.53 "Hg (May 18, 4:20 AM)
Average51 °F75%29.94 "Hg
* Reported May 12 2:20 PM — May 27 2:20 PM, Newcastle upon Tyne, Weather by CustomWeather, © 2016

Note: Actual official high and low records may vary slightly from our data, if they occured in-between our weather recording intervals... More about our weather records

Advertising

Newcastle upon Tyne Weather History for the Previous 24 Hours

Scroll right to see more
 ConditionsComfort  
Time TempWeatherWind HumidityBarometerVisibility
2:20 PM
Fri, May 27
54 °FPartly sunny.3 mph82%30.09 "HgN/A
1:50 PM54 °FPartly sunny.5 mph77%30.09 "HgN/A
1:20 PM52 °FPartly sunny.7 mph82%30.09 "HgN/A
12:50 PM52 °FPartly sunny.8 mph82%30.09 "HgN/A
12:20 PM54 °FPartly sunny.5 mph82%30.09 "HgN/A
11:50 AM52 °FPartly sunny.7 mph94%30.09 "HgN/A
11:20 AM52 °FPartly sunny.7 mph94%30.09 "HgN/A
10:50 AM52 °FPartly sunny.7 mph94%30.09 "HgN/A
10:20 AM52 °FPartly sunny.8 mph94%30.09 "HgN/A
9:50 AM50 °FBroken clouds.6 mph100%30.09 "HgN/A
9:20 AM52 °FBroken clouds.6 mph94%30.09 "HgN/A
8:50 AM50 °FBroken clouds.5 mph94%30.09 "HgN/A
8:20 AM50 °FMore clouds than sun.1 mph94%30.09 "Hg4 mi
7:50 AM48 °FFog.2 mph100%30.09 "Hg1 mi
7:20 AM48 °FFog.3 mph94%30.09 "Hg1 mi
6:50 AM48 °FFog.3 mph94%30.09 "Hg2 mi
6:20 AM48 °FPartly sunny.3 mph94%30.09 "Hg4 mi
5:50 AM48 °FBroken clouds.3 mph94%30.07 "Hg4 mi
5:20 AM48 °FFog.5 mph94%30.07 "Hg2 mi
4:50 AM48 °FFog.3 mph94%30.07 "Hg2 mi
4:20 AM48 °FFog.2 mph94%30.07 "Hg2 mi
3:50 AM48 °FFog.2 mph94%30.07 "Hg3 mi
3:20 AM48 °FPassing clouds.2 mph94%30.07 "Hg4 mi
2:50 AM48 °FPassing clouds.1 mph94%30.07 "Hg4 mi
2:20 AM48 °FPartly cloudy.1 mph94%30.09 "Hg3 mi
1:50 AM48 °FPassing clouds.2 mph94%30.09 "Hg5 mi
1:20 AM48 °FPassing clouds.2 mph94%30.09 "Hg5 mi
12:50 AM48 °FPassing clouds.2 mph94%30.07 "Hg5 mi
12:20 AM48 °FPartly cloudy.2 mph94%30.07 "Hg5 mi
11:50 PM
Thu, May 26
48 °FPartly cloudy.2 mph94%30.07 "Hg5 mi
11:20 PM48 °FPartly cloudy.2 mph94%30.07 "Hg4 mi
10:50 PM48 °FPartly cloudy.3 mph94%30.07 "Hg4 mi
10:20 PM48 °FBroken clouds.3 mph100%30.07 "Hg4 mi
9:50 PM48 °FPartly sunny.1 mph100%30.07 "Hg4 mi
9:20 PM48 °FPartly sunny.3 mph100%30.07 "HgN/A
8:50 PM50 °FPartly sunny.2 mph94%30.07 "HgN/A
8:20 PM50 °FPartly sunny.2 mph94%30.07 "HgN/A
7:50 PM50 °FPartly sunny.5 mph94%30.04 "HgN/A
7:20 PM50 °FPartly sunny.5 mph94%30.04 "HgN/A
6:50 PM50 °FPartly sunny.6 mph94%30.04 "Hg6 mi
6:20 PM50 °FPartly sunny.7 mph100%30.04 "Hg5 mi
5:50 PM50 °FDrizzle. Partly sunny.8 mph100%30.04 "Hg5 mi
5:20 PM52 °FScattered showers. Partly sunny.8 mph94%30.04 "Hg5 mi
4:50 PM52 °FDrizzle. Partly sunny.8 mph94%30.04 "Hg4 mi
4:20 PM52 °FPartly sunny.8 mph94%30.04 "Hg5 mi
3:20 PM52 °FPartly sunny.9 mph100%30.04 "Hg4 mi
Weather by CustomWeather, © 2016

See weather overviewHow to use our weather pages